DW4937 Weather Reports


Display with metric or nautical units.
time (UTC)temp
F
wind
direction
speed
MPH
gust
MPH
rain 1hr
in
rain 24hr
in
rain mn
in
humidity
%
barometer
mb
20181211015353 25 246 2.0 8.0 0.00 0.00 0.00 83 1022.4
20181211014854 25 252 4.0 10.0 0.00 0.00 0.00 83 1022.4
20181211014354 26 230 4.0 10.0 0.00 0.00 0.00 83 1022.4
20181211013853 26 254 4.0 11.0 0.00 0.00 0.00 83 1022.5
20181211013353 26 238 5.0 11.0 0.00 0.00 0.00 83 1022.5
20181211012855 26 223 5.0 11.0 0.00 0.00 0.00 83 1022.6
20181211012354 26 255 3.0 11.0 0.00 0.00 0.00 83 1022.6
20181211011855 26 246 2.0 7.0 0.00 0.00 0.00 83 1022.7
20181211011352 26 212 2.0 6.0 0.00 0.00 0.00 83 1022.6
20181211010854 26 238 3.0 13.0 0.00 0.00 0.00 83 1022.6
20181211010353 26 240 4.0 13.0 0.00 0.00 0.00 83 1022.6
20181211005851 26 249 5.0 15.0 0.00 0.00 0.00 83 1022.5
20181211005351 26 234 4.0 15.0 0.00 0.00 0.00 83 1022.5
20181211004851 26 246 3.0 9.0 0.00 0.00 0.00 83 1022.5
20181211004351 26 223 3.0 9.0 0.00 0.00 0.00 83 1022.5
20181211003851 26 225 3.0 14.0 0.00 0.00 0.00 83 1022.5
20181211003349 26 234 5.0 14.0 0.00 0.00 0.00 83 1022.5
20181211002849 26 234 6.0 14.0 0.00 0.00 0.00 83 1022.5
20181211002351 26 236 5.0 14.0 0.00 0.00 0.00 83 1022.4
20181211001849 26 261 4.0 11.0 0.00 0.00 0.00 83 1022.5
20181211001350 26 219 5.0 11.0 0.00 0.00 0.00 83 1022.5
20181211000850 27 227 7.0 11.0 0.00 0.00 0.00 83 1022.6
20181211000349 27 243 7.0 11.0 0.00 0.00 0.00 83 1022.5
20181210235849 27 257 7.0 12.0 0.00 0.00 0.00 83 1022.6
20181210235350 27 240 6.0 12.0 0.00 0.00 0.00 83 1022.6
20181210234850 27 254 5.0 11.0 0.00 0.00 0.00 83 1022.6
20181210234351 27 233 5.0 11.0 0.00 0.00 0.00 83 1022.7
20181210233851 27 250 6.0 12.0 0.00 0.00 0.00 83 1022.7
20181210233351 27 262 6.0 12.0 0.00 0.00 0.00 83 1022.8
20181210232850 27 254 7.0 13.0 0.00 0.00 0.00 83 1022.8
20181210232350 27 244 8.0 13.0 0.00 0.00 0.00 83 1022.8
20181210231847 27 273 7.0 13.0 0.00 0.00 0.00 83 1022.8
20181210231347 27 257 5.0 11.0 0.00 0.00 0.00 83 1022.9
20181210230847 27 268 5.0 11.0 0.00 0.00 0.00 83 1022.9
20181210230347 27 265 6.0 11.0 0.00 0.00 0.00 83 1022.9
20181210225847 27 259 4.0 9.0 0.00 0.00 0.00 83 1022.9
20181210225347 28 249 3.0 9.0 0.00 0.00 0.00 83 1022.9
20181210224848 28 254 2.0 8.0 0.00 0.00 0.00 83 1022.9
20181210224348 28 229 1.0 8.0 0.00 0.00 0.00 83 1022.9
20181210223848 28 243 2.0 9.0 0.00 0.00 0.00 83 1022.9
20181210223349 28 218 2.0 9.0 0.00 0.00 0.00 83 1022.8
20181210222847 28 257 1.0 9.0 0.00 0.00 0.00 83 1022.8
20181210222347 28 222 2.0 6.0 0.00 0.00 0.00 83 1022.7
20181210221847 28 203 2.0 6.0 0.00 0.00 0.00 83 1022.7
20181210221346 28 201 1.0 8.0 0.00 0.00 0.00 83 1022.7
20181210220845 28 212 1.0 8.0 0.00 0.00 0.00 83 1022.6
20181210220346 28 217 2.0 8.0 0.00 0.00 0.00 83 1022.7
20181210215846 28 208 2.0 8.0 0.00 0.00 0.00 83 1022.6
20181210215345 28 254 1.0 6.0 0.00 0.00 0.00 83 1022.7
20181210214845 28 238 0.0 7.0 0.00 0.00 0.00 83 1022.6
20181210214345 28 230 1.0 7.0 0.00 0.00 0.00 83 1022.6
20181210213845 28 208 1.0 7.0 0.00 0.00 0.00 83 1022.6
20181210213344 28 225 1.0 7.0 0.00 0.00 0.00 83 1022.5
20181210212845 28 204 0.0 4.0 0.00 0.00 0.00 83 1022.5
20181210212344 28 208 0.0 5.0 0.00 0.00 0.00 83 1022.5
20181210211844 28 201 0.0 5.0 0.00 0.00 0.00 83 1022.5
20181210211343 28 226 1.0 5.0 0.00 0.00 0.00 83 1022.5
20181210210844 28 219 1.0 5.0 0.00 0.00 0.00 83 1022.5
20181210210345 29 201 0.0 7.0 0.00 0.00 0.00 83 1022.5
20181210205844 29 214 1.0 7.0 0.00 0.00 0.00 83 1022.5
20181210205345 29 202 2.0 8.0 0.00 0.00 0.00 83 1022.5
20181210204844 29 237 2.0 8.0 0.00 0.00 0.00 83 1022.5
20181210204341 29 227 3.0 8.0 0.00 0.00 0.00 83 1022.5
20181210203840 29 240 4.0 8.0 0.00 0.00 0.00 83 1022.5
20181210203341 29 292 4.0 8.0 0.00 0.00 0.00 83 1022.5
20181210202840 29 252 4.0 8.0 0.00 0.00 0.00 83 1022.6
20181210202339 29 261 4.0 11.0 0.00 0.00 0.00 83 1022.6
20181210201839 29 244 6.0 11.0 0.00 0.00 0.00 83 1022.5
20181210201340 29 306 6.0 11.0 0.00 0.00 0.00 83 1022.5
20181210200839 30 270 4.0 11.0 0.00 0.00 0.00 83 1022.5
20181210200339 30 300 3.0 9.0 0.00 0.00 0.00 83 1022.5
20181210195837 30 257 4.0 9.0 0.00 0.00 0.00 83 1022.5
20181210195338 30 265 5.0 10.0 0.00 0.00 0.00 83 1022.5
20181210194838 30 289 4.0 10.0 0.00 0.00 0.00 83 1022.5
20181210194335 30 253 5.0 10.0 0.00 0.00 0.00 83 1022.5
20181210193837 30 260 5.0 10.0 0.00 0.00 0.00 83 1022.4
20181210193335 30 299 4.0 10.0 0.00 0.00 0.00 83 1022.5
20181210192837 30 272 4.0 10.0 0.00 0.00 0.00 83 1022.5
20181210192333 30 266 5.0 9.0 0.00 0.00 0.00 83 1022.5
20181210191831 30 238 5.0 9.0 0.00 0.00 0.00 83 1022.5
20181210191331 30 246 3.0 10.0 0.00 0.00 0.00 83 1022.6
20181210190829 30 248 3.0 10.0 0.00 0.00 0.00 83 1022.6
20181210190330 30 263 5.0 10.0 0.00 0.00 0.00 83 1022.6
20181210185830 30 261 5.0 10.0 0.00 0.00 0.00 83 1022.7
20181210185329 30 265 6.0 10.0 0.00 0.00 0.00 83 1022.7
20181210184829 30 253 6.0 10.0 0.00 0.00 0.00 83 1022.8
20181210184330 31 236 7.0 10.0 0.00 0.00 0.00 83 1022.8
20181210183829 31 254 7.0 12.0 0.00 0.00 0.00 83 1022.8
20181210183329 31 255 5.0 12.0 0.00 0.00 0.00 83 1022.9
20181210182830 31 293 4.0 9.0 0.00 0.00 0.00 83 1022.9
20181210182331 31 255 4.0 9.0 0.00 0.00 0.00 82 1022.9
20181210181829 31 238 5.0 11.0 0.00 0.00 0.00 82 1023.0
20181210181329 31 237 6.0 11.0 0.00 0.00 0.00 82 1022.9
20181210180829 31 269 6.0 11.0 0.00 0.00 0.00 82 1023.0
20181210180327 31 257 6.0 11.0 0.00 0.00 0.00 82 1022.9
20181210175827 31 314 5.0 11.0 0.00 0.00 0.00 82 1022.9
20181210175327 31 261 6.0 12.0 0.00 0.00 0.00 83 1022.9
20181210174829 31 306 6.0 12.0 0.00 0.00 0.00 82 1022.9
20181210174327 31 309 6.0 11.0 0.00 0.00 0.00 82 1023.0
20181210173827 31 5 6.0 11.0 0.00 0.00 0.00 82 1023.1
20181210173327 31 259 7.0 11.0 0.00 0.00 0.00 81 1023.1
20181210172826 32 341 6.0 12.0 0.00 0.00 0.00 82 1023.1
20181210172327 32 312 5.0 12.0 0.00 0.00 0.00 82 1023.1
20181210171827 32 271 5.0 12.0 0.00 0.00 0.00 81 1023.1
20181210171327 32 267 4.0 12.0 0.00 0.00 0.00 82 1023.2
20181210170828 32 263 5.0 9.0 0.00 0.00 0.00 82 1023.3
20181210170327 32 255 4.0 9.0 0.00 0.00 0.00 81 1023.3
20181210165827 32 264 3.0 9.0 0.00 0.00 0.00 82 1023.4
20181210165325 32 301 3.0 9.0 0.00 0.00 0.00 82 1023.5
20181210164825 32 277 4.0 9.0 0.00 0.00 0.00 82 1023.5
20181210164325 32 305 5.0 9.0 0.00 0.00 0.00 82 1023.5
20181210163825 32 311 5.0 9.0 0.00 0.00 0.00 82 1023.6
20181210163326 32 314 5.0 9.0 0.00 0.00 0.00 82 1023.7
20181210162827 32 282 7.0 10.0 0.00 0.00 0.00 82 1023.7
20181210162324 32 315 6.0 10.0 0.00 0.00 0.00 82 1023.7
20181210161823 32 298 4.0 9.0 0.00 0.00 0.00 82 1023.8
20181210161324 32 303 3.0 8.0 0.00 0.00 0.00 82 1023.9
20181210160823 32 305 3.0 8.0 0.00 0.00 0.00 82 1023.9
20181210160323 32 302 3.0 8.0 0.00 0.00 0.00 82 1023.9
20181210155821 32 285 4.0 8.0 0.00 0.00 0.00 82 1023.9
20181210155322 32 313 4.0 8.0 0.00 0.00 0.00 82 1023.9
20181210154823 32 303 4.0 8.0 0.00 0.00 0.00 81 1024.0
20181210154321 32 318 5.0 8.0 0.00 0.00 0.00 81 1023.9
20181210153822 32 316 5.0 8.0 0.00 0.00 0.00 81 1023.9
20181210153323 32 317 4.0 7.0 0.00 0.00 0.00 81 1023.9
20181210152819 32 355 4.0 6.0 0.00 0.00 0.00 81 1023.9
20181210152320 32 355 3.0 6.0 0.00 0.00 0.00 81 1023.9
20181210151819 32 355 1.0 5.0 0.00 0.00 0.00 80 1023.8
20181210151317 32 343 0.0 4.0 0.00 0.00 0.00 80 1023.8
20181210150818 32 307 0.0 6.0 0.00 0.00 0.00 80 1023.8
20181210150317 32 307 0.0 6.0 0.00 0.00 0.00 80 1023.8
20181210145819 32 304 2.0 6.0 0.00 0.00 0.00 80 1023.8
20181210145318 32 316 3.0 6.0 0.00 0.00 0.00 80 1023.8
20181210144817 32 330 3.0 6.0 0.00 0.00 0.00 81 1023.8
20181210144318 32 355 2.0 6.0 0.00 0.00 0.00 80 1023.7
20181210143817 32 5 1.0 6.0 0.00 0.00 0.00 80 1023.7
20181210143317 32 33 0.0 0.0 0.00 0.00 0.00 80 1023.6
20181210142816 32 33 0.0 0.0 0.00 0.00 0.00 80 1023.6
20181210142315 32 33 0.0 0.0 0.00 0.00 0.00 80 1023.5
20181210141816 31 33 0.0 5.0 0.00 0.00 0.00 80 1023.5
20181210141316 31 33 0.0 5.0 0.00 0.00 0.00 80 1023.5
20181210140815 31 33 1.0 5.0 0.00 0.00 0.00 80 1023.5
20181210140317 31 33 1.0 5.0 0.00 0.00 0.00 81 1023.5
20181210135815 31 30 1.0 8.0 0.00 0.00 0.00 80 1023.4
20181210135315 31 329 0.0 8.0 0.00 0.00 0.00 80 1023.4
20181210134815 31 317 3.0 8.0 0.00 0.00 0.00 81 1023.3
20181210134313 31 298 3.0 8.0 0.00 0.00 0.00 81 1023.3
20181210133814 31 303 1.0 7.0 0.00 0.00 0.00 81 1023.2
20181210133314 31 13 2.0 7.0 0.00 0.00 0.00 81 1023.1
20181210132814 31 13 4.0 7.0 0.00 0.00 0.00 81 1023.1
20181210132314 31 306 2.0 9.0 0.00 0.00 0.00 81 1023.0
20181210131815 31 311 3.0 9.0 0.00 0.00 0.00 81 1023.0
20181210131313 31 339 4.0 9.0 0.00 0.00 0.00 81 1023.0
20181210130815 31 311 4.0 10.0 0.00 0.00 0.00 81 1022.9
20181210130313 31 10 4.0 10.0 0.00 0.00 0.00 81 1022.9
20181210125813 31 5 3.0 7.0 0.00 0.00 0.00 81 1022.9
20181210125311 31 22 3.0 7.0 0.00 0.00 0.00 81 1022.9
20181210124311 31 24 3.0 11.0 0.00 0.00 0.00 81 1022.9
20181210123813 31 5 7.0 11.0 0.00 0.00 0.00 81 1023.0
20181210123311 31 346 8.0 11.0 0.00 0.00 0.00 82 1022.8
20181210122812 31 338 7.0 10.0 0.00 0.00 0.00 82 1022.8
20181210122311 31 355 5.0 10.0 0.00 0.00 0.00 81 1022.8
20181210121811 31 334 5.0 10.0 0.00 0.00 0.00 81 1022.8
20181210121312 31 342 6.0 10.0 0.00 0.00 0.00 81 1022.8
20181210120809 31 14 6.0 10.0 0.00 0.00 0.00 81 1022.7
20181210120310 31 32 6.0 10.0 0.00 0.00 0.00 81 1022.7
20181210115809 31 28 4.0 9.0 0.00 0.00 0.00 81 1022.6
20181210115309 31 44 4.0 9.0 0.00 0.00 0.00 81 1022.7
20181210114808 31 28 3.0 9.0 0.00 0.00 0.00 81 1022.6
20181210114309 31 34 3.0 9.0 0.00 0.00 0.00 81 1022.6
20181210113810 31 33 4.0 9.0 0.00 0.00 0.00 81 1022.6
20181210113310 31 44 4.0 8.0 0.00 0.00 0.00 81 1022.5
20181210112811 31 24 4.0 7.0 0.00 0.00 0.00 81 1022.6
20181210112310 31 28 4.0 7.0 0.00 0.00 0.00 81 1022.5
20181210111807 31 23 4.0 7.0 0.00 0.00 0.00 81 1022.6
20181210111308 31 336 5.0 9.0 0.00 0.00 0.00 82 1022.5
20181210110806 31 355 5.0 9.0 0.00 0.00 0.00 82 1022.5
20181210110307 31 10 6.0 9.0 0.00 0.00 0.00 82 1022.5
20181210105808 31 355 6.0 9.0 0.00 0.00 0.00 82 1022.5
20181210105307 31 5 6.0 8.0 0.00 0.00 0.00 82 1022.5
20181210104812 31 32 3.0 10.0 0.00 0.00 0.00 81 1022.5
20181210104808 31 5 5.0 8.0 0.00 0.00 0.00 81 1022.4
20181210104433 31 11 4.0 10.0 0.00 0.00 0.00 81 1022.4
20181210103306 31 30 6.0 10.0 0.00 0.00 0.00 81 1022.4
20181210102805 31 355 6.0 10.0 0.00 0.00 0.00 81 1022.4
20181210102305 31 17 5.0 8.0 0.00 0.00 0.00 81 1022.4
20181210101806 31 22 4.0 7.0 0.00 0.00 0.00 81 1022.4
20181210101306 31 38 5.0 8.0 0.00 0.00 0.00 81 1022.4
20181210100805 31 39 6.0 8.0 0.00 0.00 0.00 81 1022.4
20181210100306 31 22 5.0 8.0 0.00 0.00 0.00 81 1022.4
20181210095807 31 26 4.0 9.0 0.00 0.00 0.00 81 1022.3
20181210095306 31 37 5.0 9.0 0.00 0.00 0.00 81 1022.2
20181210094803 31 30 6.0 9.0 0.00 0.00 0.00 81 1022.2
20181210094303 31 13 7.0 11.0 0.00 0.00 0.00 81 1022.2
20181210093805 31 12 7.0 11.0 0.00 0.00 0.00 81 1022.3
20181210093304 31 348 7.0 11.0 0.00 0.00 0.00 81 1022.2
20181210092803 31 355 7.0 11.0 0.00 0.00 0.00 82 1022.3
20181210092305 31 5 7.0 11.0 0.00 0.00 0.00 82 1022.1
20181210091803 31 5 7.0 10.0 0.00 0.00 0.00 82 1022.1
20181210091303 31 348 7.0 10.0 0.00 0.00 0.00 82 1022.1
20181210090804 31 5 7.0 10.0 0.00 0.00 0.00 82 1022.1
20181210090301 31 17 6.0 10.0 0.00 0.00 0.00 82 1022.1
20181210085802 31 5 6.0 10.0 0.00 0.00 0.00 82 1022.1
20181210085301 31 0 7.0 10.0 0.00 0.00 0.00 82 1022.1
20181210084802 31 28 7.0 10.0 0.00 0.00 0.00 82 1022.2
20181210084302 30 0 6.0 10.0 0.00 0.00 0.00 82 1022.2
20181210083801 30 344 6.0 10.0 0.00 0.00 0.00 82 1022.3
20181210083301 30 5 6.0 10.0 0.00 0.00 0.00 82 1022.3
20181210082803 30 355 6.0 10.0 0.00 0.00 0.00 82 1022.4
20181210082305 30 9 7.0 10.0 0.00 0.00 0.00 82 1022.3
20181210081802 30 351 7.0 9.0 0.00 0.00 0.00 82 1022.4
20181210081300 30 5 5.0 8.0 0.00 0.00 0.00 81 1022.4
20181210080758 30 42 5.0 11.0 0.00 0.00 0.00 81 1022.4
20181210080255 31 22 5.0 11.0 0.00 0.00 0.00 81 1022.4
20181210075756 31 23 6.0 11.0 0.00 0.00 0.00 81 1022.4
20181210075255 31 355 7.0 11.0 0.00 0.00 0.00 82 1022.3
20181210074756 31 355 8.0 11.0 0.00 0.00 0.00 82 1022.4
20181210074255 31 5 7.0 11.0 0.00 0.00 0.00 82 1022.5
20181210073755 31 11 6.0 12.0 0.00 0.00 0.00 82 1022.5
20181210073257 31 14 6.0 12.0 0.00 0.00 0.00 82 1022.5
20181210072755 31 17 6.0 11.0 0.00 0.00 0.00 82 1022.5
20181210072256 31 40 6.0 11.0 0.00 0.00 0.00 82 1022.4
20181210071754 31 25 7.0 11.0 0.00 0.00 0.00 82 1022.4
20181210071254 31 25 7.0 11.0 0.00 0.00 0.00 82 1022.4
20181210070753 31 30 8.0 12.0 0.00 0.00 0.00 82 1022.4
20181210070254 31 13 7.0 12.0 0.00 0.00 0.00 82 1022.3
20181210065754 31 30 7.0 12.0 0.00 0.00 0.00 82 1022.3
20181210065253 31 26 8.0 12.0 0.00 0.00 0.00 82 1022.3
20181210064753 31 19 10.0 13.0 0.00 0.00 0.00 82 1022.2
20181210064251 31 35 10.0 13.0 0.00 0.00 0.00 82 1022.2
20181210063752 31 19 10.0 13.0 0.00 0.00 0.00 82 1022.2
20181210063251 31 12 9.0 13.0 0.00 0.00 0.00 82 1022.3
20181210062752 31 36 9.0 12.0 0.00 0.00 0.00 83 1022.2
20181210062252 31 21 8.0 11.0 0.00 0.00 0.00 82 1022.3
20181210061751 31 16 7.0 11.0 0.00 0.00 0.00 82 1022.3
20181210061250 30 22 7.0 11.0 0.00 0.00 0.00 83 1022.3
20181210060752 30 23 8.0 11.0 0.00 0.00 0.00 82 1022.2
20181210060251 30 0 7.0 11.0 0.00 0.00 0.00 82 1022.2
20181210055751 30 9 8.0 12.0 0.00 0.00 0.00 81 1022.3
20181210055249 30 28 7.0 12.0 0.00 0.00 0.00 81 1022.2
20181210054750 29 355 7.0 12.0 0.00 0.00 0.00 80 1022.4
20181210054250 28 11 8.0 12.0 0.00 0.00 0.00 79 1022.4
20181210053750 27 22 8.0 11.0 0.00 0.00 0.00 79 1022.4
20181210053250 26 350 8.0 10.0 0.00 0.00 0.00 80 1022.5
20181210052750 24 355 7.0 10.0 0.00 0.00 0.00 82 1022.5
20181210052249 24 18 6.0 9.0 0.00 0.00 0.00 83 1022.6
20181210051750 24 24 6.0 9.0 0.00 0.00 0.00 82 1022.6
20181210051250 23 18 6.0 9.0 0.00 0.00 0.00 83 1022.7
20181210050750 23 5 6.0 9.0 0.00 0.00 0.00 83 1022.7
20181210050247 23 331 6.0 8.0 0.00 0.00 0.00 83 1022.6
20181210045747 23 329 6.0 8.0 0.00 0.00 0.00 83 1022.7
20181210045247 23 335 6.0 8.0 0.00 0.00 0.00 83 1022.8
20181210044744 23 325 6.0 8.0 0.00 0.00 0.00 83 1022.9
20181210044244 23 329 6.0 8.0 0.00 0.00 0.00 84 1022.9
20181210043744 23 327 6.0 8.0 0.00 0.00 0.00 84 1023.0
20181210043243 24 336 6.0 7.0 0.00 0.00 0.00 84 1023.1
20181210042742 24 321 5.0 7.0 0.00 0.00 0.00 83 1023.1
20181210042240 24 308 5.0 7.0 0.00 0.00 0.00 83 1023.1
20181210041739 24 316 5.0 8.0 0.00 0.00 0.00 83 1023.2
20181210041237 24 326 6.0 8.0 0.00 0.00 0.00 83 1023.2
20181210040738 25 329 6.0 8.0 0.00 0.00 0.00 83 1023.2
20181210040238 26 316 5.0 8.0 0.00 0.00 0.00 83 1023.3
20181210035739 26 305 5.0 8.0 0.00 0.00 0.00 83 1023.3
20181210035237 27 326 5.0 8.0 0.00 0.00 0.00 83 1023.3
20181210034737 27 321 5.0 8.0 0.00 0.00 0.00 83 1023.3
20181210034238 28 304 6.0 8.0 0.00 0.00 0.00 83 1023.3
20181210033737 28 323 6.0 8.0 0.00 0.00 0.00 83 1023.3
20181210033239 28 325 7.0 9.0 0.00 0.00 0.00 83 1023.3
20181210032738 28 341 6.0 9.0 0.00 0.00 0.00 83 1023.4
20181210032238 29 336 6.0 9.0 0.00 0.00 0.00 83 1023.4
20181210031738 28 329 7.0 9.0 0.00 0.00 0.00 83 1023.4
20181210031238 28 0 7.0 9.0 0.00 0.00 0.00 83 1023.4
20181210030737 28 355 6.0 9.0 0.00 0.00 0.00 83 1023.6
20181210030237 29 350 6.0 8.0 0.00 0.00 0.00 83 1023.5
20181210025737 29 338 6.0 8.0 0.00 0.00 0.00 83 1023.5
20181210025238 29 332 6.0 9.0 0.00 0.00 0.00 83 1023.6
20181210024737 29 331 5.0 9.0 0.00 0.00 0.00 83 1023.6
20181210024238 29 338 5.0 9.0 0.00 0.00 0.00 83 1023.6
20181210023739 29 317 6.0 9.0 0.00 0.00 0.00 83 1023.6
20181210023237 29 338 6.0 8.0 0.00 0.00 0.00 83 1023.6
20181210022738 29 355 5.0 8.0 0.00 0.00 0.00 83 1023.6
20181210022237 29 355 5.0 8.0 0.00 0.00 0.00 83 1023.5
20181210021738 29 350 5.0 8.0 0.00 0.00 0.00 83 1023.6
20181210021238 29 346 5.0 8.0 0.00 0.00 0.00 83 1023.6
20181210020737 29 348 5.0 8.0 0.00 0.00 0.00 83 1023.7
20181210020236 29 355 5.0 8.0 0.00 0.00 0.00 83 1023.7
20181210015735 29 328 6.0 8.0 0.00 0.00 0.00 83 1023.7